IRIDIUM 164 (43577 NORAD) Tracking and Keplerian Element Data

This shows tracking and keplerian element data for the satellite.

Feedback or suggestion? Click here.




ElementValue
Catalog43577
NameIRIDIUM 164
Epoch Orbit30744
Epoch Day159.8311861
Epoch Year2024
RAAN5.7413
Inclination86.3974
Eccentricity0.0002522
Argument of Perigee85.3668
Mean Anonmoly274.7816
Mean Motion14.34217538
Decay Rate1.77E-06
L11 43577U 18061J 24159.83118610 .00000177 00000+0 56132-4 0 9996
L22 43577 86.3974 5.7413 0002522 85.3668 274.7816 14.34217538307443



Live tracking and technical data element details for IRIDIUM 164 (NORAD 43577). IRIDIUM 164 can be tracked NOW for your location showing map with azimuth and elevation plus other details from your city location.







IsCatalogInMostPopularTable: catalog: 43577, numindb: 712
Update: records affected: 1



GetName: 43577 IRIDIUM 164

Hit Count: updated at: Mon, 17 Jun 2024 23:57:34 GMT